STARLINK-32002

Last updated on Fri Aug 02 2024 00:02:05 GMT+0000 (Coordinated Universal Time)

1 60200U 24124T 24213.77741398 -.00000399 00000+0 00000+0 0 9999 2 60200 53.1625 172.9637 0001233 100.0257 260.0005 15.39619087 14
UTC large
Height (km)
Speed (km/s)
/
Latitude / Longitude
Inclination (degrees)
Orbital Period (minutes)
Azimuth
Elevation
Range (km)
Doppler Factor

Next 0 passes for location: London (51.5072 / 0.1276)

Sorry there are no passes over London.